Regional Weather Roundup
Issued by NWS

Home | Current Version | Previous Version | Text Only | Print | Product List | Glossary Off
Versions: 1 2 3 4 5 6 7 8 9 10 11 12 13 14 15 16 17 18 19 20 21 22 23 24 25 26 27 28 29 30 31 32 33 34 35 36 37 38 39 40 41 42 43 44 45 46 47 48 49 50

000
ASUS43 KFSD 180102
RWRSD

WEATHER ROUNDUP FOR SOUTH DAKOTA
NATIONAL WEATHER SERVICE SIOUX FALLS SD
800 PM CDT WED SEP 17 2014

NOTE: "FAIR" INDICATES FEW OR NO CLOUDS BELOW 12,000 FEET WITH NO
SIGNIFICANT WEATHER AND/OR OBSTRUCTIONS TO VISIBILITY.


SDZ001>005-009-010-012>017-180200-
NORTHWEST AND NORTH CENTRAL SOUTH DAKOTA

CITY           SKY/WX    TMP DP  RH WIND       PRES   REMARKS
FAITH            N/A     65  50  58 E12       29.94F
MOBRIDGE       CLOUDY    64  49  57 E13       29.93F
$$

SDZ012>016-024>037-041>051-057-063-072>074-180200-
SOUTHWEST AND SOUTH CENTRAL SOUTH DAKOTA

CITY           SKY/WX    TMP DP  RH WIND       PRES   REMARKS
RAPID CTY ARPT MOCLDY    71  53  52 E10       29.93R
PIERRE         CLOUDY    70  45  40 E12       29.93R
CUSTER         CLEAR     66  42  41 E7        30.05R
ELLSWORTH AFB  PTCLDY    73  52  47 E8        29.93R
PHILIP         MOCLDY    70  52  52 E10       29.92R
PINE RIDGE     CLEAR     71  54  54 E9        29.91S
WINNER         FAIR      69  56  62 E10       29.94R
$$

SDZ004>011-016>023-039-040-180200-
NORTHEAST SOUTH DAKOTA

CITY           SKY/WX    TMP DP  RH WIND       PRES   REMARKS
ABERDEEN       MOCLDY    60  53  77 N6        29.97S
WATERTOWN      CLEAR     61  51  70 NE5       29.98R
SISSETON         N/A     56  53  90 CALM      29.96R
$$

SDZ017-020-022-023-036>040-048>070-180200-
SOUTHEAST SOUTH DAKOTA

CITY           SKY/WX    TMP DP  RH WIND       PRES   REMARKS
SIOUX FALLS    PTCLDY    65  56  72 N5        29.94R
HURON          PTCLDY    62  51  67 CALM      29.94R
CHAMBERLAIN    PTCLDY    68  55  64 E3        29.95R
MITCHELL       PTCLDY    65  56  72 NE7       29.94R
YANKTON        CLEAR     68  55  64 NE7       29.92R
$$

ABBREVIATIONS USED IN REMARKS
   TC - TEMPERATURE IN CELSIUS
  WCI - WIND CHILL INDEX
   HX - HEAT INDEX
  VSB - VISIBILITY



USA.gov is the U.S. government's official web portal to all federal, state and local government web resources and services.